Time,TemperatureF,DewpointF,PressureIn,WindDirection,WindDirectionDegrees,WindSpeedMPH,WindSpeedGustMPH,Humidity,HourlyPrecipIn,Conditions,Clouds,dailyrainin,SoftwareType,DateUTC
2013-02-10 00:08:00,13.7,11.0,30.36,SSW,198,1.0,-999.0,90,-99.99,,,0.00,weatherlink.com 1.10,2013-02-10 05:08:00,
2013-02-10 00:23:00,14.3,12.0,30.35,SSW,198,1.0,-999.0,90,-99.99,,,0.00,weatherlink.com 1.10,2013-02-10 05:23:00,
2013-02-10 00:38:00,15.7,13.0,30.35,SSW,192,0.0,-999.0,90,-99.99,,,0.00,weatherlink.com 1.10,2013-02-10 05:38:00,
2013-02-10 00:53:00,16.4,14.0,30.36,South,184,0.0,-999.0,90,-99.99,,,0.00,weatherlink.com 1.10,2013-02-10 05:53:00,
2013-02-10 01:08:00,16.1,14.0,30.36,NE,47,4.0,-999.0,90,-99.99,,,0.00,weatherlink.com 1.10,2013-02-10 06:08:00,
2013-02-10 01:23:00,17.0,15.0,30.35,NE,49,0.0,-999.0,90,-99.99,,,0.00,weatherlink.com 1.10,2013-02-10 06:23:00,
2013-02-10 01:38:00,17.5,15.0,30.34,East,91,2.0,-999.0,89,-99.99,,,0.00,weatherlink.com 1.10,2013-02-10 06:38:00,
2013-02-10 01:53:00,17.7,15.0,30.34,East,92,2.0,-999.0,89,-99.99,,,0.00,weatherlink.com 1.10,2013-02-10 06:53:00,
2013-02-10 02:08:00,18.0,15.0,30.33,ESE,116,0.0,-999.0,88,-99.99,,,0.00,weatherlink.com 1.10,2013-02-10 07:08:00,
2013-02-10 02:23:00,17.1,14.0,30.33,NNE,30,4.0,-999.0,88,-99.99,,,0.00,weatherlink.com 1.10,2013-02-10 07:23:00,
2013-02-10 02:38:00,17.6,15.0,30.33,NNE,30,3.0,-999.0,88,-99.99,,,0.00,weatherlink.com 1.10,2013-02-10 07:38:00,
2013-02-10 02:53:00,17.9,15.0,30.33,NNE,30,2.0,-999.0,88,-99.99,,,0.00,weatherlink.com 1.10,2013-02-10 07:53:00,
2013-02-10 03:08:00,18.6,16.0,30.32,ENE,75,0.0,-999.0,88,-99.99,,,0.00,weatherlink.com 1.10,2013-02-10 08:08:00,
2013-02-10 03:23:00,18.7,16.0,30.32,ENE,76,2.0,-999.0,88,-99.99,,,0.00,weatherlink.com 1.10,2013-02-10 08:23:00,
2013-02-10 03:39:00,19.6,17.0,30.31,NE,36,1.0,-999.0,88,-99.99,,,0.00,weatherlink.com 1.10,2013-02-10 08:39:00,
2013-02-10 03:54:00,20.2,17.0,30.31,SSE,149,2.0,-999.0,88,-99.99,,,0.00,weatherlink.com 1.10,2013-02-10 08:54:00,
2013-02-10 04:09:00,20.1,17.0,30.30,SSE,155,2.0,-999.0,88,-99.99,,,0.00,weatherlink.com 1.10,2013-02-10 09:09:00,
2013-02-10 04:24:00,20.3,17.0,30.30,SSE,155,0.0,-999.0,88,-99.99,,,0.00,weatherlink.com 1.10,2013-02-10 09:24:00,
2013-02-10 04:39:00,21.1,18.0,30.29,SSE,153,0.0,-999.0,88,-99.99,,,0.00,weatherlink.com 1.10,2013-02-10 09:39:00,
2013-02-10 04:54:00,21.1,18.0,30.29,SSE,152,0.0,-999.0,88,-99.99,,,0.00,weatherlink.com 1.10,2013-02-10 09:54:00,
2013-02-10 05:09:00,21.3,18.0,30.30,SSE,152,0.0,-999.0,88,-99.99,,,0.00,weatherlink.com 1.10,2013-02-10 10:09:00,
2013-02-10 05:24:00,21.3,18.0,30.30,SSE,153,2.0,-999.0,88,-99.99,,,0.00,weatherlink.com 1.10,2013-02-10 10:24:00,
2013-02-10 05:39:00,21.0,18.0,30.30,SSE,160,0.0,-999.0,87,-99.99,,,0.00,weatherlink.com 1.10,2013-02-10 10:39:00,
2013-02-10 05:54:00,21.2,18.0,30.31,SSE,160,0.0,-999.0,88,-99.99,,,0.00,weatherlink.com 1.10,2013-02-10 10:54:00,
2013-02-10 06:09:00,21.9,19.0,30.30,SSE,160,1.0,-999.0,87,-99.99,,,0.00,weatherlink.com 1.10,2013-02-10 11:09:00,
2013-02-10 06:24:00,21.8,19.0,30.30,SSE,160,2.0,-999.0,87,-99.99,,,0.00,weatherlink.com 1.10,2013-02-10 11:24:00,
2013-02-10 06:39:00,21.8,19.0,30.30,SSE,160,0.0,-999.0,87,-99.99,,,0.00,weatherlink.com 1.10,2013-02-10 11:39:00,
2013-02-10 06:54:00,21.9,19.0,30.30,SSE,160,1.0,-999.0,87,-99.99,,,0.00,weatherlink.com 1.10,2013-02-10 11:54:00,
2013-02-10 07:10:00,22.0,19.0,30.30,SSE,160,0.0,-999.0,87,-99.99,,,0.00,weatherlink.com 1.10,2013-02-10 12:10:00,
2013-02-10 07:25:00,22.0,19.0,30.30,East,86,0.0,-999.0,87,-99.99,,,0.00,weatherlink.com 1.10,2013-02-10 12:25:00,
2013-02-10 07:40:00,22.0,19.0,30.30,East,86,0.0,-999.0,87,-99.99,,,0.00,weatherlink.com 1.10,2013-02-10 12:40:00,
2013-02-10 07:55:00,22.2,19.0,30.31,East,86,0.0,-999.0,87,-99.99,,,0.00,weatherlink.com 1.10,2013-02-10 12:55:00,
2013-02-10 08:10:00,22.5,19.0,30.31,East,85,2.0,-999.0,87,-99.99,,,0.00,weatherlink.com 1.10,2013-02-10 13:10:00,
2013-02-10 08:25:00,22.7,19.0,30.31,NE,52,2.0,-999.0,87,-99.99,,,0.00,weatherlink.com 1.10,2013-02-10 13:25:00,
2013-02-10 08:40:00,23.1,20.0,30.30,ENE,74,2.0,-999.0,87,-99.99,,,0.00,weatherlink.com 1.10,2013-02-10 13:40:00,
2013-02-10 08:55:00,23.4,20.0,30.29,East,95,2.0,-999.0,87,-99.99,,,0.00,weatherlink.com 1.10,2013-02-10 13:55:00,
2013-02-10 09:10:00,23.9,21.0,30.28,ESE,114,5.0,-999.0,87,-99.99,,,0.00,weatherlink.com 1.10,2013-02-10 14:10:00,
2013-02-10 09:25:00,24.3,21.0,30.28,ESE,109,3.0,-999.0,87,-99.99,,,0.00,weatherlink.com 1.10,2013-02-10 14:25:00,
2013-02-10 09:40:00,24.7,21.0,30.27,ESE,117,1.0,-999.0,86,-99.99,,,0.00,weatherlink.com 1.10,2013-02-10 14:40:00,
2013-02-10 09:56:00,25.1,22.0,30.26,East,96,5.0,-999.0,86,-99.99,,,0.00,weatherlink.com 1.10,2013-02-10 14:56:00,
2013-02-10 10:11:00,25.3,22.0,30.25,ESE,107,7.0,-999.0,86,-99.99,,,0.00,weatherlink.com 1.10,2013-02-10 15:11:00,
2013-02-10 10:26:00,26.0,22.0,30.25,ESE,119,11.0,-999.0,86,-99.99,,,0.00,weatherlink.com 1.10,2013-02-10 15:26:00,
2013-02-10 10:41:00,26.7,23.0,30.24,ESE,118,4.0,-999.0,86,-99.99,,,0.00,weatherlink.com 1.10,2013-02-10 15:41:00,
2013-02-10 10:56:00,26.3,23.0,30.23,ESE,110,5.0,-999.0,86,-99.99,,,0.00,weatherlink.com 1.10,2013-02-10 15:56:00,
2013-02-10 11:11:00,26.7,23.0,30.22,ESE,122,5.0,-999.0,86,-99.99,,,0.00,weatherlink.com 1.10,2013-02-10 16:11:00,
2013-02-10 11:26:00,27.0,23.0,30.21,ESE,116,6.0,-999.0,85,-99.99,,,0.00,weatherlink.com 1.10,2013-02-10 16:26:00,
2013-02-10 11:41:00,27.3,25.0,30.20,East,94,7.0,-999.0,92,-99.99,,,0.00,weatherlink.com 1.10,2013-02-10 16:41:00,
2013-02-10 11:56:00,27.5,24.0,30.20,ESE,119,3.0,-999.0,85,-99.99,,,0.00,weatherlink.com 1.10,2013-02-10 16:56:00,
2013-02-10 12:11:00,28.0,24.0,30.20,ESE,119,12.0,-999.0,85,-99.99,,,0.00,weatherlink.com 1.10,2013-02-10 17:11:00,
2013-02-10 12:26:00,28.4,25.0,30.19,SE,139,13.0,-999.0,85,-99.99,,,0.00,weatherlink.com 1.10,2013-02-10 17:26:00,
2013-02-10 12:41:00,28.8,25.0,30.19,ESE,111,10.0,-999.0,86,-99.99,,,0.00,weatherlink.com 1.10,2013-02-10 17:41:00,
2013-02-10 12:56:00,29.6,26.0,30.19,ESE,104,4.0,-999.0,85,-99.99,,,0.00,weatherlink.com 1.10,2013-02-10 17:56:00,
2013-02-10 13:11:00,30.7,26.0,30.17,SE,129,8.0,-999.0,83,-99.99,,,0.00,weatherlink.com 1.10,2013-02-10 18:11:00,
2013-02-10 13:26:00,31.1,26.0,30.17,SE,128,9.0,-999.0,82,-99.99,,,0.00,weatherlink.com 1.10,2013-02-10 18:26:00,
2013-02-10 13:42:00,32.0,27.0,30.16,SE,128,14.0,-999.0,81,-99.99,,,0.00,weatherlink.com 1.10,2013-02-10 18:42:00,
2013-02-10 13:57:00,32.4,27.0,30.14,East,96,7.0,-999.0,80,-99.99,,,0.00,weatherlink.com 1.10,2013-02-10 18:57:00,
2013-02-10 14:12:00,32.5,27.0,30.13,ESE,123,10.0,-999.0,81,-99.99,,,0.00,weatherlink.com 1.10,2013-02-10 19:12:00,
2013-02-10 14:27:00,32.7,28.0,30.12,ESE,110,6.0,-999.0,82,-99.99,,,0.00,weatherlink.com 1.10,2013-02-10 19:27:00,
2013-02-10 14:42:00,33.3,28.0,30.11,SE,128,7.0,-999.0,82,-99.99,,,0.00,weatherlink.com 1.10,2013-02-10 19:42:00,
2013-02-10 14:57:00,33.9,29.0,30.10,SE,136,14.0,-999.0,81,-99.99,,,0.00,weatherlink.com 1.10,2013-02-10 19:57:00,
2013-02-10 15:12:00,34.1,29.0,30.09,SE,133,10.0,-999.0,81,-99.99,,,0.00,weatherlink.com 1.10,2013-02-10 20:12:00,
2013-02-10 15:27:00,34.3,29.0,30.08,SE,129,7.0,-999.0,82,-99.99,,,0.00,weatherlink.com 1.10,2013-02-10 20:27:00,
2013-02-10 15:42:00,34.2,30.0,30.08,ESE,119,17.0,-999.0,83,-99.99,,,0.00,weatherlink.com 1.10,2013-02-10 20:42:00,
2013-02-10 15:57:00,34.2,30.0,30.08,ESE,109,15.0,-999.0,83,-99.99,,,0.00,weatherlink.com 1.10,2013-02-10 20:57:00,
2013-02-10 16:12:00,33.9,30.0,30.07,SSE,153,19.0,-999.0,84,-99.99,,,0.00,weatherlink.com 1.10,2013-02-10 21:12:00,
2013-02-10 16:27:00,33.5,30.0,30.05,ENE,75,11.0,-999.0,85,-99.99,,,0.00,weatherlink.com 1.10,2013-02-10 21:27:00,
2013-02-10 16:42:00,33.1,29.0,30.05,ESE,115,7.0,-999.0,86,-99.99,,,0.00,weatherlink.com 1.10,2013-02-10 21:42:00,
2013-02-10 16:57:00,32.4,29.0,30.04,ESE,107,17.0,-999.0,86,-99.99,,,0.00,weatherlink.com 1.10,2013-02-10 21:57:00,
2013-02-10 17:12:00,32.0,28.0,30.02,SE,136,14.0,-999.0,85,-99.99,,,0.00,weatherlink.com 1.10,2013-02-10 22:12:00,
2013-02-10 17:27:00,32.0,28.0,30.01,ESE,123,11.0,-999.0,84,-99.99,,,0.00,weatherlink.com 1.10,2013-02-10 22:27:00,
2013-02-10 17:57:00,31.7,27.0,29.99,ESE,111,10.0,-999.0,83,-99.99,,,0.00,weatherlink.com 1.10,2013-02-10 22:57:00,
2013-02-10 18:12:00,31.9,27.0,29.97,East,90,12.0,-999.0,81,-99.99,,,0.00,weatherlink.com 1.10,2013-02-10 23:12:00,
2013-02-10 18:27:00,32.0,27.0,29.96,East,98,11.0,-999.0,80,-99.99,,,0.00,weatherlink.com 1.10,2013-02-10 23:27:00,
2013-02-10 18:42:00,32.1,27.0,29.96,SE,131,14.0,-999.0,80,-99.99,,,0.00,weatherlink.com 1.10,2013-02-10 23:42:00,
2013-02-10 18:57:00,32.1,26.0,29.95,ESE,106,11.0,-999.0,78,-99.99,,,0.00,weatherlink.com 1.10,2013-02-10 23:57:00,
2013-02-10 19:12:00,32.1,26.0,29.95,ESE,110,8.0,-999.0,77,-99.99,,,0.00,weatherlink.com 1.10,2013-02-11 00:12:00,
2013-02-10 19:27:00,31.8,25.0,29.93,ESE,107,10.0,-999.0,76,-99.99,,,0.00,weatherlink.com 1.10,2013-02-11 00:27:00,
2013-02-10 19:42:00,31.9,25.0,29.91,ESE,111,15.0,-999.0,76,-99.99,,,0.00,weatherlink.com 1.10,2013-02-11 00:42:00,
2013-02-10 19:57:00,31.8,26.0,29.90,ESE,111,10.0,-999.0,78,-99.99,,,0.00,weatherlink.com 1.10,2013-02-11 00:57:00,
2013-02-10 20:12:00,31.8,25.0,29.89,ESE,123,12.0,-999.0,77,-99.99,,,0.00,weatherlink.com 1.10,2013-02-11 01:12:00,
2013-02-10 20:28:00,31.7,26.0,29.88,ESE,123,9.0,-999.0,79,-99.99,,,0.00,weatherlink.com 1.10,2013-02-11 01:28:00,
2013-02-10 20:43:00,31.3,26.0,29.87,East,94,19.0,-999.0,81,-99.99,,,0.00,weatherlink.com 1.10,2013-02-11 01:43:00,
2013-02-10 20:58:00,30.7,27.0,29.86,ESE,107,12.0,-999.0,86,-99.99,,,0.00,weatherlink.com 1.10,2013-02-11 01:58:00,
2013-02-10 21:13:00,30.3,28.0,29.86,ESE,108,15.0,-999.0,89,-99.99,,,0.00,weatherlink.com 1.10,2013-02-11 02:13:00,
2013-02-10 21:28:00,30.2,28.0,29.85,East,98,12.0,-999.0,92,-99.99,,,0.00,weatherlink.com 1.10,2013-02-11 02:28:00,
2013-02-10 21:43:00,30.1,28.0,29.83,SE,125,13.0,-999.0,93,-99.99,,,0.00,weatherlink.com 1.10,2013-02-11 02:43:00,
2013-02-10 21:58:00,30.3,29.0,29.82,ESE,113,11.0,-999.0,93,-99.99,,,0.00,weatherlink.com 1.10,2013-02-11 02:58:00,
2013-02-10 22:13:00,30.3,29.0,29.81,SE,138,14.0,-999.0,93,-99.99,,,0.00,weatherlink.com 1.10,2013-02-11 03:13:00,
2013-02-10 22:28:00,30.4,29.0,29.80,ESE,116,14.0,-999.0,94,-99.99,,,0.00,weatherlink.com 1.10,2013-02-11 03:28:00,
2013-02-10 22:43:00,30.5,29.0,29.78,ESE,108,12.0,-999.0,94,-99.99,,,0.00,weatherlink.com 1.10,2013-02-11 03:43:00,
2013-02-10 22:58:00,30.6,29.0,29.76,ESE,119,14.0,-999.0,94,-99.99,,,0.00,weatherlink.com 1.10,2013-02-11 03:58:00,
2013-02-10 23:13:00,30.9,30.0,29.75,ESE,115,16.0,-999.0,95,-99.99,,,0.00,weatherlink.com 1.10,2013-02-11 04:13:00,
2013-02-10 23:28:00,31.0,30.0,29.74,ESE,106,12.0,-999.0,95,-99.99,,,0.00,weatherlink.com 1.10,2013-02-11 04:28:00,
2013-02-10 23:43:00,31.4,30.0,29.73,ESE,121,14.0,-999.0,95,-99.99,,,0.00,weatherlink.com 1.10,2013-02-11 04:43:00,
2013-02-10 23:58:00,31.6,30.0,29.72,ESE,111,19.0,-999.0,95,-99.99,,,0.00,weatherlink.com 1.10,2013-02-11 04:58:00,